Location: Dumpton Point
(51.3500°N, 1.4433°E)
Time: 02:40:35
(UTC+00:00)

S-56A Canister/Altair - Visible Passes

Search period start: 21 April 2021 00:00
Search period end: 01 May 2021 00:00
Orbit: 632 x 2500 km, 38.9° (Epoch: 20 April)

Date Brightness Start Highest point End Pass type
(mag) Time Alt. Az. Time Alt. Az. Time Alt. Az.
22 Apr 10.3 20:26:03 10° SSE 20:27:54 11° SSE 20:27:54 11° SSE visible
23 Apr 10.3 19:53:49 10° SSE 19:55:43 11° SSE 19:57:30 10° SE visible
23 Apr 10.0 21:52:25 10° SSW 21:55:52 18° SSW 21:55:52 18° SSW visible
24 Apr 9.6 21:19:15 10° SSW 21:26:10 23° SSE 21:26:10 23° SSE visible
24 Apr 10.4 23:22:57 10° WSW 23:23:41 12° SW 23:23:41 12° SW visible
25 Apr 9.6 20:46:05 10° SSW 20:53:39 23° SSE 20:56:15 20° SE visible
25 Apr 9.8 22:49:39 10° SW 22:53:45 23° SW 22:53:45 23° SW visible
26 Apr 10.0 20:12:56 10° SSW 20:20:50 22° SSE 20:26:09 12° ESE visible
26 Apr 9.3 22:16:19 10° SW 22:23:38 31° S 22:23:38 31° S visible
27 Apr 10.1 19:39:49 10° SSW 19:47:59 22° SSE 19:54:22 10° ESE visible
27 Apr 9.2 21:42:56 10° SW 21:51:43 32° S 21:53:19 30° SSE visible
27 Apr 10.0 23:48:05 10° WSW 23:50:47 18° WSW 23:50:47 18° WSW visible
28 Apr 9.5 21:09:31 10° SW 21:18:55 33° S 21:22:49 22° SE visible
28 Apr 9.5 23:14:39 10° WSW 23:20:16 27° SW 23:20:16 27° SW visible
29 Apr 9.6 20:36:06 10° SW 20:46:04 33° S 20:52:10 14° ESE visible
29 Apr 9.1 22:41:11 10° WSW 22:49:36 34° SSW 22:49:36 34° SSW visible
30 Apr 9.8 20:02:41 10° SW 20:13:10 33° SSE 20:20:45 10° ESE visible
30 Apr 9.1 22:07:40 10° WSW 22:16:58 36° S 22:18:50 32° SSE visible
